Location: Cranford
(40.6578°N, 74.3024°W)
Time: 04:25:11
(UTC+00:00)

BlueWalker 3 - Visible Passes

Search period start: 28 November 2022 00:00
Search period end: 08 December 2022 00:00
Orbit: 500 x 519 km, 53.2° (Epoch: 27 November)

Date Brightness Start Highest point End Pass type
(mag) Time Alt. Az. Time Alt. Az. Time Alt. Az.
28 Nov 4.4 23:35:14 10° NW 23:37:05 14° NNW 23:37:05 14° NNW visible
29 Nov 4.2 23:16:57 10° NW 23:19:01 14° N 23:19:26 13° N visible
30 Nov 4.2 22:58:41 10° NW 23:00:42 14° N 23:01:47 12° N visible
01 Dec 4.2 22:40:24 10° NW 22:42:23 13° N 22:44:07 11° NNE visible
02 Dec 4.2 22:22:05 10° NW 22:24:04 13° N 22:26:01 10° NNE visible
03 Dec 4.2 22:03:47 10° NW 22:05:43 13° N 22:07:40 10° NNE visible
03 Dec 4.5 23:42:59 10° NNW 23:43:40 13° NNW 23:43:40 13° NNW visible
04 Dec 4.1 23:24:34 10° NNW 23:26:05 16° N 23:26:05 16° N visible
05 Dec 3.8 23:06:09 10° NNW 23:08:32 18° N 23:08:32 18° N visible
06 Dec 3.6 22:47:44 10° NNW 22:50:36 19° NNE 22:51:04 19° NNE visible
07 Dec 3.5 22:29:18 10° NNW 22:32:14 20° NNE 22:33:41 16° NE visible
